Home   Weather   Andorra La Vella   Past weeks

Flag for Andorra Past Weather in Andorra La Vella, Andorra — Yesterday and Last 2 Weeks

64 °F

Passing clouds.

Feels Like: 64 °F
Forecast: 47 / 66 °F
Wind: 17 mph from East

Location: Carcassonne Airport

Current Time: Oct 24, 2016 at 7:22:52 AM

Latest Report: Oct 24, 2016 at 4:00 AM

Visibility: N/A

Pressure: 29.74 "Hg (26.35 "Hg at 1031m altitude)

Humidity: 94%

Dew Point: 63 °F

Location of Andorra La VellaLocation

Past Weather in Andorra La Vella — Graph


Andorra La Vella Temperature Yesterday

Maximum temperature yesterday: 70 °F (at 4:30 PM)
Minimum temperature yesterday: 54 °F (at 12:00 AM)
Average temperature yesterday: 62 °F

High & Low Weather Summary for the Past Weeks

High72 °F (Oct 16, 3:30 PM)100% (Oct 12, 10:30 PM)30.33 "Hg (Oct 12, 10:30 PM)
Low37 °F (Oct 22, 2:30 AM)26% (Oct 11, 2:30 PM)29.50 "Hg (Oct 14, 4:00 AM)
Average57 °F74%29.97 "Hg
* Reported Oct 9 4:00 AM — Oct 24 4:00 AM, Andorra La Vella, Weather by CustomWeather, © 2016

Note: Actual official high and low records may vary slightly from our data, if they occured in-between our weather recording intervals... More about our weather records


Andorra La Vella Weather History for the Previous 24 Hours

Scroll right to see more
Time TempWeatherWind HumidityBarometerVisibility
4:00 AM
Mon, Oct 24
64 °FPassing clouds.17 mph94%29.74 "HgN/A
3:30 AM64 °FPassing clouds.18 mph94%29.77 "HgN/A
3:00 AM64 °FMostly cloudy.20 mph94%29.74 "HgN/A
2:30 AM64 °FPassing clouds.22 mph94%29.74 "HgN/A
2:00 AM64 °FPassing clouds.16 mph94%29.74 "HgN/A
1:30 AM64 °FPassing clouds.17 mph94%29.74 "HgN/A
1:00 AM64 °FPassing clouds.18 mph94%29.74 "HgN/A
12:30 AM64 °FMostly cloudy.17 mph94%29.74 "HgN/A
12:00 AM64 °FPassing clouds.20 mph94%29.74 "Hg6 mi
11:30 PM
Sun, Oct 23
64 °FLow clouds.18 mph94%29.74 "Hg5 mi
11:00 PM64 °FLow clouds.15 mph100%29.74 "Hg4 mi
10:30 PM64 °FFog.14 mph100%29.74 "Hg3 mi
10:00 PM64 °FDrizzle. Fog.14 mph94%29.74 "Hg3 mi
9:30 PM64 °FDrizzle. Fog.17 mph100%29.74 "Hg3 mi
9:00 PM64 °FDrizzle. Fog.16 mph100%29.74 "Hg3 mi
8:30 PM64 °FDrizzle. Fog.18 mph100%29.74 "Hg3 mi
8:00 PM64 °FDrizzle. Fog.18 mph100%29.74 "Hg3 mi
7:30 PM64 °FDrizzle. Low clouds.20 mph100%29.74 "Hg4 mi
7:00 PM66 °FLow clouds.20 mph88%29.71 "HgN/A
6:30 PM66 °FMostly cloudy.17 mph88%29.71 "HgN/A
6:00 PM68 °FOvercast.18 mph83%29.71 "HgN/A
5:30 PM68 °FPartly sunny.16 mph83%29.71 "HgN/A
5:00 PM68 °FPartly sunny.21 mph83%29.68 "HgN/A
4:30 PM70 °FPartly sunny.21 mph78%29.68 "HgN/A
4:00 PM68 °FPartly sunny.23 mph83%29.68 "HgN/A
3:30 PM68 °FPartly sunny.20 mph78%29.68 "HgN/A
3:00 PM68 °FPartly sunny.20 mph78%29.68 "HgN/A
2:30 PM66 °FPartly sunny.21 mph83%29.68 "HgN/A
2:00 PM66 °FPartly sunny.17 mph83%29.68 "HgN/A
1:30 PM66 °FMore clouds than sun.18 mph83%29.68 "HgN/A
1:00 PM66 °FPartly sunny.14 mph83%29.71 "HgN/A
12:30 PM63 °FMostly cloudy.16 mph88%29.71 "HgN/A
Weather by CustomWeather, © 2016

See weather overviewHow to use our weather pages